Regional Weather Roundup
Issued by NWS

Home | Current Version | Previous Version | Graphics & Text | Print | Product List | Glossary On
Versions: 1 2 3 4 5 6 7 8 9 10 11 12 13 14 15 16 17 18 19 20 21 22 23 24 25 26 27 28 29 30 31 32 33 34 35 36 37 38 39 40 41 42 43 44 45 46 47 48 49 50
000
ASUS43 KLMK 122002
RWRKY
KENTUCKY REGIONAL WEATHER ROUNDUP
NATIONAL WEATHER SERVICE LOUISVILLE KY
300 PM EST TUE DEC 12 2017

NOTE "FAIR" INDICATES FEW OR NO CLOUDS BELOW 12,000 FEET
WITH NO SIGNIFICANT WEATHER AND/OR OBSTRUCTIONS TO VISIBILITY.

KYZ001>023-026-027-061>063-070>075-122100-
WESTERN AND SOUTH CENTRAL KENTUCKY

CITY           SKY/WX    TMP DP  RH WIND       PRES   REMARKS
PADUCAH        SUNNY     40  11  30 NW10      30.14F WCI  33
HENDERSON      MOSUNNY   34  10  37 NW20      30.12F WCI  23
OWENSBORO      SUNNY     35  12  38 NW18      30.10F WCI  24
HOPKINSVILLE   SUNNY     38  11  33 NW13G21   30.09F WCI  30
BOWLING GREEN  SUNNY     38  13  35 W15G25    30.06F WCI  29
GLASGOW        NOT AVBL
$$

KYZ024-025-028>034-038-045-046-053-122100-
NORTH CENTRAL KENTUCKY

CITY           SKY/WX    TMP DP  RH WIND       PRES   REMARKS
LOUISVILLE/SDF MOSUNNY   34   6  31 NW16      30.01F WCI  24
LOUISVILLE/LOU SUNNY     32   5  32 NW17G32   30.02S WCI  21
FORT KNOX      MOSUNNY   32   6  33 NW16G24   30.01S WCI  21
$$

KYZ035>037-039>044-047>052-055>060-089>105-122100-
NORTHEAST KENTUCKY

CITY           SKY/WX    TMP DP  RH WIND       PRES   REMARKS
LEXINGTON      MOSUNNY   32   8  36 NW18G32   29.95R WCI  20
COVINGTON      CLOUDY    27  12  53 NW20G29   29.94S WCI  13
FRANKFORT      PTSUNNY   33   8  35 NW16G30   29.95F WCI  23
$$

KYZ054-064>069-076>088-106>120-122100-
SOUTHEAST KENTUCKY

CITY           SKY/WX    TMP DP  RH WIND       PRES   REMARKS
JACKSON        CLOUDY    30  20  66 VRB6      29.86R WCI  24
LONDON         MOSUNNY   36  12  37 W17G28    29.90F WCI  26
SOMERSET       MOSUNNY   34  10  37 NW17G24   29.96S WCI  23
MIDDLESBORO    CLOUDY    36  20  52 NW14G26   29.91S WCI  27
MONTICELLO     PTCLDY    37  17  44 NW17G28   29.98S WCI  27
$$





USA.gov is the U.S. government's official web portal to all federal, state and local government web resources and services.